Weather History for Bishop, CA

Change the Weather History Date:

Saturday, January 4, 2014

  Actual Average Record
Temperature  
Mean Temperature 42 °F 38 °F  
Max Temperature 62 °F 53 °F 68 °F (1984)
Min Temperature 22 °F 22 °F -2 °F (1955)
Degree Days  
Heating Degree Days 23 27  
Month to date heating degree days 87 110  
Since 1 July heating degree days 1895 1857  
Cooling Degree Days 0 0  
Month to date cooling degree days 0 0  
Year to date cooling degree days 0 0  
Moisture  
Dew Point 8 °F    
Average Humidity 38    
Maximum Humidity 68    
Minimum Humidity 7    
Precipitation  
Precipitation 0.00 in 0.04 in 4.00 in (2008)
Month to date precipitation 0.00 0.17  
Year to date precipitation 0.00 0.17  
Snow  
Snow 0.00 in 0.10 in 6.00 in (2005)
Month to date snowfall 0.0 0.4  
Since 1 July snowfall 0.5 2.1  
Snow Depth 0.00 in    
Sea Level Pressure  
Sea Level Pressure 30.06 in    
Wind  
Wind Speed 13 mph (North)    
Max Wind Speed 33 mph    
Max Gust Speed 42 mph    
Visibility 10 miles    
Events      
T = Trace of Precipitation, MM = Missing Value Source: NWS Daily Summary

Daily Weather History Graph

Daily Weather History Graph

Search for Another Location

Airport:

Trip Planner

Search our weather history database for the weather conditions in past years. The results will help you decide how hot, cold, wet, or windy it might be!

Date:

Astronomy

Jan. 04, 2014 Rise Set
Actual Time 7:08 AM PST 4:49 PM PST
Civil Twilight 6:39 AM PST 5:18 PM PST
Nautical Twilight 6:06 AM PST 5:50 PM PST
Astronomical Twilight 5:34 AM PST 6:22 PM PST
Moon 9:21 AM PST (1/4) 9:08 PM PST (1/4)
Length of Visible Light 10h 38m
Length of Day
9h 40m
Waxing Crescent, 16% of the Moon is Illuminated
Jan 4
Waxing Crescent
Jan 7
First Quarter
Jan 15
Full
Jan 23
Last Quarter
Jan 30
New

Hourly Weather History & Observations

Time (PST) Temp. Windchill Dew Point Humidity Pressure Visibility Wind Dir Wind Speed Gust Speed Precip Events Conditions
12:56 AM 28.0 °F 21.7 °F 15.1 °F 58% 29.96 in 10.0 mi NW 5.8 mph - N/A   Clear
1:56 AM 25.0 °F 17.1 °F 14.0 °F 63% 29.97 in 10.0 mi North 6.9 mph - N/A   Clear
2:56 AM 28.0 °F 20.8 °F 16.0 °F 61% 29.96 in 10.0 mi NNW 6.9 mph - N/A   Clear
3:56 AM 27.0 °F 18.7 °F 16.0 °F 63% 29.96 in 10.0 mi NNW 8.1 mph - N/A   Clear
4:56 AM 24.1 °F 16.0 °F 14.0 °F 65% 29.98 in 10.0 mi NW 6.9 mph - N/A   Clear
5:56 AM 24.1 °F 16.0 °F 15.1 °F 69% 30.00 in 10.0 mi North 6.9 mph - N/A   Clear
6:56 AM 23.0 °F 15.8 °F 14.0 °F 68% 30.03 in 10.0 mi NNE 5.8 mph - N/A   Clear
7:56 AM 27.0 °F 20.5 °F 16.0 °F 63% 30.04 in 10.0 mi NW 5.8 mph - N/A   Clear
8:56 AM 43.0 °F 41.3 °F 19.9 °F 40% 30.05 in 10.0 mi NE 3.5 mph - N/A   Clear
9:56 AM 57.9 °F - 24.1 °F 27% 30.04 in 10.0 mi North 19.6 mph 28.8 mph N/A   Clear
10:56 AM 60.1 °F - 24.1 °F 25% 30.03 in 10.0 mi North 21.9 mph 31.1 mph N/A   Clear
11:56 AM 60.1 °F - 19.9 °F 21% 30.02 in 10.0 mi North 27.6 mph 41.4 mph N/A   Clear
12:56 PM 61.0 °F - 15.1 °F 17% 30.02 in 10.0 mi North 26.5 mph 36.8 mph N/A   Clear
1:56 PM 62.1 °F - 10.0 °F 13% 30.04 in 10.0 mi North 26.5 mph 35.7 mph N/A   Clear
2:56 PM 62.1 °F - 5.0 °F 10% 30.05 in 10.0 mi North 20.7 mph 31.1 mph N/A   Clear
3:56 PM 59.0 °F - -0.9 °F 9% 30.08 in 10.0 mi North 20.7 mph 26.5 mph N/A   Clear
4:56 PM 53.1 °F - -9.9 °F 7% 30.12 in 10.0 mi North 15.0 mph - N/A   Clear
5:56 PM 50.0 °F - -9.0 °F 8% 30.14 in 10.0 mi North 10.4 mph - N/A   Clear
6:56 PM 43.0 °F 36.0 °F -9.0 °F 11% 30.17 in 10.0 mi North 13.8 mph - N/A   Clear
7:56 PM 45.0 °F 37.9 °F -5.1 °F 12% 30.18 in 10.0 mi NNW 16.1 mph - N/A   Clear
8:56 PM 45.0 °F 39.3 °F -2.9 °F 14% 30.14 in 10.0 mi North 11.5 mph - N/A   Clear
9:56 PM 39.9 °F 32.9 °F -2.0 °F 17% 30.15 in 10.0 mi NW 11.5 mph - N/A   Clear
10:56 PM 36.0 °F 29.6 °F -4.0 °F 18% 30.15 in 10.0 mi North 8.1 mph - N/A   Clear
11:56 PM 37.9 °F 32.1 °F -6.0 °F 15% 30.16 in 10.0 mi NW 8.1 mph - N/A   Clear